Year,Month,Day,Hour,Minute,Value (Times are PST for windgust in km/hr)
2020,03,04,00,00,14.50
2020,03,04,00,01,11.30
2020,03,04,00,02,16.10
2020,03,04,00,03,12.90
2020,03,04,00,04,14.50
2020,03,04,00,05,8.10
2020,03,04,00,06,9.60
2020,03,04,00,07,14.50
2020,03,04,00,08,17.70
2020,03,04,00,09,9.60
2020,03,04,00,10,16.10
2020,03,04,00,11,8.10
2020,03,04,00,12,11.30
2020,03,04,00,13,8.10
2020,03,04,00,14,4.80
2020,03,04,00,15,8.10
2020,03,04,00,16,8.10
2020,03,04,00,17,8.10
2020,03,04,00,18,24.20
2020,03,04,00,19,17.70
2020,03,04,00,20,9.60
2020,03,04,00,21,19.30
2020,03,04,00,22,16.10
2020,03,04,00,23,17.70
2020,03,04,00,24,16.10
2020,03,04,00,25,20.90
2020,03,04,00,26,19.30
2020,03,04,00,27,17.70
2020,03,04,00,28,16.10
2020,03,04,00,29,16.10
2020,03,04,00,30,9.60
2020,03,04,00,31,8.10
2020,03,04,00,32,6.40
2020,03,04,00,33,6.40
2020,03,04,00,34,20.90
2020,03,04,00,35,16.10
2020,03,04,00,36,14.50
2020,03,04,00,37,17.70
2020,03,04,00,38,20.90
2020,03,04,00,39,16.10
2020,03,04,00,40,9.60
2020,03,04,00,41,9.60
2020,03,04,00,42,14.50
2020,03,04,00,43,17.70
2020,03,04,00,44,9.60
2020,03,04,00,45,12.90
2020,03,04,00,46,17.70
2020,03,04,00,47,6.40
2020,03,04,00,48,11.30
2020,03,04,00,49,17.70
2020,03,04,00,50,19.30
2020,03,04,00,51,17.70
2020,03,04,00,52,22.50
2020,03,04,00,53,14.50
2020,03,04,00,54,14.50
2020,03,04,00,55,16.10
2020,03,04,00,56,11.30
2020,03,04,00,57,8.10
2020,03,04,00,58,4.80
2020,03,04,00,59,6.40
2020,03,04,01,00,9.60
2020,03,04,01,01,8.10
2020,03,04,01,02,17.70
2020,03,04,01,03,16.10
2020,03,04,01,04,17.70
2020,03,04,01,05,9.60
2020,03,04,01,06,8.10
2020,03,04,01,07,9.60
2020,03,04,01,08,6.40
2020,03,04,01,09,14.50
2020,03,04,01,10,14.50
2020,03,04,01,11,11.30
2020,03,04,01,12,16.10
2020,03,04,01,13,9.60
2020,03,04,01,14,6.40
2020,03,04,01,15,11.30
2020,03,04,01,16,9.60
2020,03,04,01,17,11.30
2020,03,04,01,18,16.10
2020,03,04,01,19,16.10
2020,03,04,01,20,16.10
2020,03,04,01,21,14.50
2020,03,04,01,22,17.70
2020,03,04,01,23,16.10
2020,03,04,01,24,16.10
2020,03,04,01,25,19.30
2020,03,04,01,26,14.50
2020,03,04,01,27,19.30
2020,03,04,01,28,16.10
2020,03,04,01,29,17.70
2020,03,04,01,30,20.90
2020,03,04,01,31,17.70
2020,03,04,01,32,24.20
2020,03,04,01,33,9.60
2020,03,04,01,34,11.30
2020,03,04,01,35,17.70
2020,03,04,01,36,11.30
2020,03,04,01,37,22.50
2020,03,04,01,38,22.50
2020,03,04,01,39,14.50
2020,03,04,01,40,16.10
2020,03,04,01,41,17.70
2020,03,04,01,42,14.50
2020,03,04,01,43,16.10
2020,03,04,01,44,11.30
2020,03,04,01,45,27.40
2020,03,04,01,46,20.90
2020,03,04,01,47,16.10
2020,03,04,01,48,19.30
2020,03,04,01,49,20.90
2020,03,04,01,50,22.50
2020,03,04,01,51,19.30
2020,03,04,01,52,17.70
2020,03,04,01,53,17.70
2020,03,04,01,54,12.90
2020,03,04,01,55,14.50
2020,03,04,01,56,8.10
2020,03,04,01,57,16.10
2020,03,04,01,58,16.10
2020,03,04,01,59,14.50
2020,03,04,02,00,20.90
2020,03,04,02,01,16.10
2020,03,04,02,02,6.40
2020,03,04,02,03,16.10
2020,03,04,02,04,11.30
2020,03,04,02,05,11.30
2020,03,04,02,06,14.50
2020,03,04,02,07,16.10
2020,03,04,02,08,8.10
2020,03,04,02,09,17.70
2020,03,04,02,10,14.50
2020,03,04,02,11,16.10
2020,03,04,02,12,17.70
2020,03,04,02,13,22.50
2020,03,04,02,14,20.90
2020,03,04,02,15,16.10
2020,03,04,02,16,4.80
2020,03,04,02,17,22.50
2020,03,04,02,18,17.70
2020,03,04,02,19,16.10
2020,03,04,02,20,9.60
2020,03,04,02,21,12.90
2020,03,04,02,22,17.70
2020,03,04,02,23,16.10
2020,03,04,02,24,19.30
2020,03,04,02,25,16.10
2020,03,04,02,26,8.10
2020,03,04,02,27,9.60
2020,03,04,02,28,17.70
2020,03,04,02,29,14.50
2020,03,04,02,30,27.40
2020,03,04,02,31,20.90
2020,03,04,02,32,16.10
2020,03,04,02,33,11.30
2020,03,04,02,34,16.10
2020,03,04,02,35,16.10
2020,03,04,02,36,11.30
2020,03,04,02,37,11.30
2020,03,04,02,38,11.30
2020,03,04,02,39,11.30
2020,03,04,02,40,14.50
2020,03,04,02,41,17.70
2020,03,04,02,42,19.30
2020,03,04,02,43,17.70
2020,03,04,02,44,19.30
2020,03,04,02,45,12.90
2020,03,04,02,46,6.40
2020,03,04,02,47,11.30
2020,03,04,02,48,9.60
2020,03,04,02,49,8.10
2020,03,04,02,50,25.70
2020,03,04,02,51,17.70
2020,03,04,02,52,8.10
2020,03,04,02,53,11.30
2020,03,04,02,54,8.10
2020,03,04,02,55,9.60
2020,03,04,02,56,11.30
2020,03,04,02,57,9.60
2020,03,04,02,58,16.10
2020,03,04,02,59,19.30
2020,03,04,03,00,14.50
2020,03,04,03,01,11.30
2020,03,04,03,02,17.70
2020,03,04,03,03,16.10
2020,03,04,03,04,14.50
2020,03,04,03,05,9.60
2020,03,04,03,06,4.80
2020,03,04,03,07,9.60
2020,03,04,03,08,9.60
2020,03,04,03,09,11.30
2020,03,04,03,10,16.10
2020,03,04,03,11,6.40
2020,03,04,03,12,8.10
2020,03,04,03,13,6.40
2020,03,04,03,14,6.40
2020,03,04,03,15,1.60
2020,03,04,03,16,8.10
2020,03,04,03,17,6.40
2020,03,04,03,18,6.40
2020,03,04,03,19,8.10
2020,03,04,03,20,4.80
2020,03,04,03,21,9.60
2020,03,04,03,22,6.40
2020,03,04,03,23,6.40
2020,03,04,03,24,3.20
2020,03,04,03,25,6.40
2020,03,04,03,26,1.60
2020,03,04,03,27,3.20
2020,03,04,03,29,1.60
2020,03,04,03,30,1.60
2020,03,04,03,31,1.60
2020,03,04,03,40,1.60
2020,03,04,03,41,1.60
2020,03,04,03,42,1.60
2020,03,04,03,43,4.80
2020,03,04,03,44,1.60
2020,03,04,03,45,1.60
2020,03,04,03,46,3.20
2020,03,04,03,47,1.60
2020,03,04,03,50,1.60
2020,03,04,03,51,1.60
2020,03,04,03,52,3.20
2020,03,04,03,53,1.60
2020,03,04,03,55,3.20
2020,03,04,03,56,3.20
2020,03,04,03,57,1.60
2020,03,04,03,58,1.60
2020,03,04,03,59,3.20
2020,03,04,04,00,3.20
2020,03,04,04,01,1.60
2020,03,04,04,02,3.20
2020,03,04,04,03,1.60
2020,03,04,04,04,3.20
2020,03,04,04,05,11.30
2020,03,04,04,06,6.40
2020,03,04,04,07,3.20
2020,03,04,04,08,6.40
2020,03,04,04,09,4.80
2020,03,04,04,10,1.60
2020,03,04,04,13,1.60
2020,03,04,04,14,1.60
2020,03,04,04,15,3.20
2020,03,04,04,16,1.60
2020,03,04,04,17,3.20
2020,03,04,04,18,3.20
2020,03,04,04,19,6.40
2020,03,04,04,20,3.20
2020,03,04,04,21,1.60
2020,03,04,04,22,1.60
2020,03,04,04,23,1.60
2020,03,04,04,24,1.60
2020,03,04,04,26,1.60
2020,03,04,04,28,1.60
2020,03,04,04,34,1.60
2020,03,04,04,35,3.20
2020,03,04,04,36,3.20
2020,03,04,04,38,1.60
2020,03,04,04,47,1.60
2020,03,04,04,48,1.60
2020,03,04,04,52,3.20
2020,03,04,04,53,3.20
2020,03,04,04,54,1.60
2020,03,04,04,58,1.60
2020,03,04,04,59,3.20
2020,03,04,05,00,1.60
2020,03,04,05,02,1.60
2020,03,04,05,03,3.20
2020,03,04,05,04,4.80
2020,03,04,05,05,4.80
2020,03,04,05,06,4.80
2020,03,04,05,07,3.20
2020,03,04,05,08,1.60
2020,03,04,05,10,1.60
2020,03,04,05,11,1.60
2020,03,04,05,12,1.60
2020,03,04,05,16,3.20
2020,03,04,05,17,3.20
2020,03,04,05,18,3.20
2020,03,04,05,19,3.20
2020,03,04,05,20,4.80
2020,03,04,05,21,1.60
2020,03,04,05,22,1.60
2020,03,04,05,23,1.60
2020,03,04,05,24,1.60
2020,03,04,05,25,3.20
2020,03,04,05,26,3.20
2020,03,04,05,27,1.60
2020,03,04,05,28,1.60
2020,03,04,05,32,3.20
2020,03,04,05,33,4.80
2020,03,04,05,34,1.60
2020,03,04,05,35,1.60
2020,03,04,05,37,3.20
2020,03,04,05,38,1.60
2020,03,04,05,39,3.20
2020,03,04,05,40,1.60
2020,03,04,05,43,3.20
2020,03,04,05,44,1.60
2020,03,04,05,45,1.60
2020,03,04,05,46,1.60
2020,03,04,07,58,1.60
2020,03,04,08,08,1.60
2020,03,04,08,09,3.20
2020,03,04,08,10,1.60
2020,03,04,08,13,1.60
2020,03,04,08,26,1.60
2020,03,04,08,41,1.60
2020,03,04,08,42,1.60
2020,03,04,08,43,1.60
2020,03,04,08,44,1.60
2020,03,04,08,47,1.60
2020,03,04,08,48,1.60
2020,03,04,08,52,3.20
2020,03,04,08,57,3.20
2020,03,04,08,58,1.60
2020,03,04,08,59,1.60
2020,03,04,09,00,3.20
2020,03,04,09,01,1.60
2020,03,04,09,02,3.20
2020,03,04,09,03,1.60
2020,03,04,09,04,1.60
2020,03,04,09,06,4.80
2020,03,04,09,07,4.80
2020,03,04,09,08,4.80
2020,03,04,09,09,4.80
2020,03,04,09,10,3.20
2020,03,04,09,11,3.20
2020,03,04,09,12,1.60
2020,03,04,09,13,3.20
2020,03,04,09,14,1.60
2020,03,04,09,15,3.20
2020,03,04,09,16,3.20
2020,03,04,09,17,3.20
2020,03,04,09,18,3.20
2020,03,04,09,19,3.20
2020,03,04,09,20,4.80
2020,03,04,09,21,3.20
2020,03,04,09,22,4.80
2020,03,04,09,23,4.80
2020,03,04,09,24,4.80
2020,03,04,09,25,4.80
2020,03,04,09,26,4.80
2020,03,04,09,27,6.40
2020,03,04,09,28,4.80
2020,03,04,09,29,3.20
2020,03,04,09,30,3.20
2020,03,04,09,31,8.10
2020,03,04,09,32,3.20
2020,03,04,09,33,6.40
2020,03,04,09,34,6.40
2020,03,04,09,35,3.20
2020,03,04,09,36,4.80
2020,03,04,09,37,1.60
2020,03,04,09,38,3.20
2020,03,04,09,39,3.20
2020,03,04,09,40,4.80
2020,03,04,09,41,4.80
2020,03,04,09,42,4.80
2020,03,04,09,43,3.20
2020,03,04,09,44,1.60
2020,03,04,09,45,6.40
2020,03,04,09,46,3.20
2020,03,04,09,47,4.80
2020,03,04,09,48,6.40
2020,03,04,09,49,4.80
2020,03,04,09,50,6.40
2020,03,04,09,51,9.60
2020,03,04,09,52,6.40
2020,03,04,09,53,6.40
2020,03,04,09,54,8.10
2020,03,04,09,55,8.10
2020,03,04,09,56,9.60
2020,03,04,09,57,8.10
2020,03,04,09,58,8.10
2020,03,04,09,59,4.80
2020,03,04,10,00,6.40
2020,03,04,10,01,4.80
2020,03,04,10,02,3.20
2020,03,04,10,03,3.20
2020,03,04,10,04,4.80
2020,03,04,10,05,6.40
2020,03,04,10,06,6.40
2020,03,04,10,07,6.40
2020,03,04,10,08,6.40
2020,03,04,10,09,3.20
2020,03,04,10,10,4.80
2020,03,04,10,11,4.80
2020,03,04,10,12,4.80
2020,03,04,10,13,8.10
2020,03,04,10,14,6.40
2020,03,04,10,15,6.40
2020,03,04,10,16,6.40
2020,03,04,10,17,6.40
2020,03,04,10,18,4.80
2020,03,04,10,19,8.10
2020,03,04,10,20,4.80
2020,03,04,10,21,4.80
2020,03,04,10,22,1.60
2020,03,04,10,23,6.40
2020,03,04,10,24,6.40
2020,03,04,10,25,4.80
2020,03,04,10,26,3.20
2020,03,04,10,27,8.10
2020,03,04,10,28,3.20
2020,03,04,10,29,3.20
2020,03,04,10,30,8.10
2020,03,04,10,31,6.40
2020,03,04,10,32,6.40
2020,03,04,10,33,4.80
2020,03,04,10,34,6.40
2020,03,04,10,35,9.60
2020,03,04,10,36,9.60
2020,03,04,10,37,11.30
2020,03,04,10,38,6.40
2020,03,04,10,39,3.20
2020,03,04,10,40,8.10
2020,03,04,10,41,3.20
2020,03,04,10,42,1.60
2020,03,04,10,43,6.40
2020,03,04,10,44,6.40
2020,03,04,10,45,8.10
2020,03,04,10,46,6.40
2020,03,04,10,47,8.10
2020,03,04,10,48,8.10
2020,03,04,10,49,6.40
2020,03,04,10,50,6.40
2020,03,04,10,51,6.40
2020,03,04,10,52,6.40
2020,03,04,10,53,8.10
2020,03,04,10,54,9.60
2020,03,04,10,55,8.10
2020,03,04,10,56,4.80
2020,03,04,10,57,6.40
2020,03,04,10,58,8.10
2020,03,04,10,59,9.60
2020,03,04,11,00,8.10
2020,03,04,11,01,4.80
2020,03,04,11,02,6.40
2020,03,04,11,03,4.80
2020,03,04,11,04,4.80
2020,03,04,11,05,4.80
2020,03,04,11,06,8.10
2020,03,04,11,07,8.10
2020,03,04,11,08,4.80
2020,03,04,11,09,4.80
2020,03,04,11,10,6.40
2020,03,04,11,11,4.80
2020,03,04,11,12,3.20
2020,03,04,11,13,9.60
2020,03,04,11,14,9.60
2020,03,04,11,15,6.40
2020,03,04,11,16,6.40
2020,03,04,11,17,6.40
2020,03,04,11,18,8.10
2020,03,04,11,19,8.10
2020,03,04,11,20,11.30
2020,03,04,11,21,9.60
2020,03,04,11,22,6.40
2020,03,04,11,23,8.10
2020,03,04,11,24,6.40
2020,03,04,11,25,8.10
2020,03,04,11,26,8.10
2020,03,04,11,27,9.60
2020,03,04,11,28,9.60
2020,03,04,11,29,8.10
2020,03,04,11,30,4.80
2020,03,04,11,31,6.40
2020,03,04,11,32,9.60
2020,03,04,11,33,8.10
2020,03,04,11,34,8.10
2020,03,04,11,35,9.60
2020,03,04,11,36,11.30
2020,03,04,11,37,8.10
2020,03,04,11,38,9.60
2020,03,04,11,39,11.30
2020,03,04,11,40,8.10
2020,03,04,11,41,8.10
2020,03,04,11,42,3.20
2020,03,04,11,43,11.30
2020,03,04,11,44,9.60
2020,03,04,11,45,9.60
2020,03,04,11,46,8.10
2020,03,04,11,47,12.90
2020,03,04,11,48,9.60
2020,03,04,11,49,11.30
2020,03,04,11,50,6.40
2020,03,04,11,51,8.10
2020,03,04,11,52,8.10
2020,03,04,11,53,4.80
2020,03,04,11,54,8.10
2020,03,04,11,55,9.60
2020,03,04,11,56,6.40
2020,03,04,11,57,9.60
2020,03,04,11,58,11.30
2020,03,04,11,59,11.30
2020,03,04,12,00,6.40
2020,03,04,12,01,8.10
2020,03,04,12,02,11.30
2020,03,04,12,03,9.60
2020,03,04,12,04,9.60
2020,03,04,12,05,11.30
2020,03,04,12,06,11.30
2020,03,04,12,07,11.30
2020,03,04,12,08,8.10
2020,03,04,12,09,11.30
2020,03,04,12,10,6.40
2020,03,04,12,11,8.10
2020,03,04,12,12,6.40
2020,03,04,12,13,8.10
2020,03,04,12,14,8.10
2020,03,04,12,15,9.60
2020,03,04,12,16,8.10
2020,03,04,12,17,8.10
2020,03,04,12,18,9.60
2020,03,04,12,19,8.10
2020,03,04,12,20,8.10
2020,03,04,12,21,8.10
2020,03,04,12,22,8.10
2020,03,04,12,23,6.40
2020,03,04,12,24,8.10
2020,03,04,12,25,8.10
2020,03,04,12,26,6.40
2020,03,04,12,27,9.60
2020,03,04,12,28,11.30
2020,03,04,12,29,3.20
2020,03,04,12,30,6.40
2020,03,04,12,31,8.10
2020,03,04,12,32,4.80
2020,03,04,12,33,8.10
2020,03,04,12,34,9.60
2020,03,04,12,35,4.80
2020,03,04,12,36,6.40
2020,03,04,12,37,11.30
2020,03,04,12,38,14.50
2020,03,04,12,39,16.10
2020,03,04,12,40,11.30
2020,03,04,12,41,14.50
2020,03,04,12,42,11.30
2020,03,04,12,43,11.30
2020,03,04,12,44,11.30
2020,03,04,12,45,20.90
2020,03,04,12,46,11.30
2020,03,04,12,47,16.10
2020,03,04,12,48,11.30
2020,03,04,12,49,8.10
2020,03,04,12,50,9.60
2020,03,04,12,51,9.60
2020,03,04,12,52,11.30
2020,03,04,12,53,16.10
2020,03,04,12,54,16.10
2020,03,04,12,55,16.10
2020,03,04,12,56,16.10
2020,03,04,12,57,11.30
2020,03,04,12,58,11.30
2020,03,04,12,59,9.60
2020,03,04,13,00,9.60
2020,03,04,13,01,12.90
2020,03,04,13,02,12.90
2020,03,04,13,03,8.10
2020,03,04,13,04,9.60
2020,03,04,13,05,11.30
2020,03,04,13,06,9.60
2020,03,04,13,07,9.60
2020,03,04,13,08,14.50
2020,03,04,13,09,11.30
2020,03,04,13,10,17.70
2020,03,04,13,11,17.70
2020,03,04,13,12,9.60
2020,03,04,13,13,14.50
2020,03,04,13,14,11.30
2020,03,04,13,15,14.50
2020,03,04,13,16,9.60
2020,03,04,13,17,19.30
2020,03,04,13,18,16.10
2020,03,04,13,19,14.50
2020,03,04,13,20,8.10
2020,03,04,13,21,12.90
2020,03,04,13,22,14.50
2020,03,04,13,23,14.50
2020,03,04,13,24,6.40
2020,03,04,13,25,11.30
2020,03,04,13,26,17.70
2020,03,04,13,27,12.90
2020,03,04,13,28,9.60
2020,03,04,13,29,8.10
2020,03,04,13,30,11.30
2020,03,04,13,31,16.10
2020,03,04,13,32,11.30
2020,03,04,13,33,11.30
2020,03,04,13,34,16.10
2020,03,04,13,35,17.70
2020,03,04,13,36,14.50
2020,03,04,13,37,16.10
2020,03,04,13,38,17.70
2020,03,04,13,39,11.30
2020,03,04,13,40,17.70
2020,03,04,13,41,14.50
2020,03,04,13,42,16.10
2020,03,04,13,43,11.30
2020,03,04,13,44,14.50
2020,03,04,13,45,17.70
2020,03,04,13,46,8.10
2020,03,04,13,47,16.10
2020,03,04,13,48,14.50
2020,03,04,13,49,19.30
2020,03,04,13,50,16.10
2020,03,04,13,51,17.70
2020,03,04,13,52,19.30
2020,03,04,13,53,19.30
2020,03,04,13,54,11.30
2020,03,04,13,55,14.50
2020,03,04,13,56,17.70
2020,03,04,13,57,16.10
2020,03,04,13,58,17.70
2020,03,04,13,59,14.50
2020,03,04,14,00,14.50
2020,03,04,14,01,16.10
2020,03,04,14,02,11.30
2020,03,04,14,03,16.10
2020,03,04,14,04,14.50
2020,03,04,14,05,14.50
2020,03,04,14,06,16.10
2020,03,04,14,07,19.30
2020,03,04,14,08,16.10
2020,03,04,14,09,14.50
2020,03,04,14,10,16.10
2020,03,04,14,11,16.10
2020,03,04,14,12,11.30
2020,03,04,14,13,16.10
2020,03,04,14,14,16.10
2020,03,04,14,15,11.30
2020,03,04,14,16,17.70
2020,03,04,14,17,19.30
2020,03,04,14,18,16.10
2020,03,04,14,19,11.30
2020,03,04,14,20,20.90
2020,03,04,14,21,22.50
2020,03,04,14,22,17.70
2020,03,04,14,23,19.30
2020,03,04,14,24,19.30
2020,03,04,14,25,19.30
2020,03,04,14,26,24.20
2020,03,04,14,27,19.30
2020,03,04,14,28,11.30
2020,03,04,14,29,17.70
2020,03,04,14,30,19.30
2020,03,04,14,31,17.70
2020,03,04,14,32,17.70
2020,03,04,14,33,19.30
2020,03,04,14,34,12.90
2020,03,04,14,35,16.10
2020,03,04,14,36,19.30
2020,03,04,14,37,16.10
2020,03,04,14,38,16.10
2020,03,04,14,39,14.50
2020,03,04,14,40,14.50
2020,03,04,14,41,16.10
2020,03,04,14,42,14.50
2020,03,04,14,43,17.70
2020,03,04,14,44,16.10
2020,03,04,14,45,17.70
2020,03,04,14,46,14.50
2020,03,04,14,47,20.90
2020,03,04,14,48,17.70
2020,03,04,14,49,20.90
2020,03,04,14,50,19.30
2020,03,04,14,51,16.10
2020,03,04,14,52,14.50
2020,03,04,14,53,19.30
2020,03,04,14,54,16.10
2020,03,04,14,55,9.60
2020,03,04,14,56,11.30
2020,03,04,14,57,8.10
2020,03,04,14,58,17.70
2020,03,04,14,59,14.50
2020,03,04,15,00,19.30
2020,03,04,15,01,19.30
2020,03,04,15,02,14.50
2020,03,04,15,03,20.90
2020,03,04,15,04,9.60
2020,03,04,15,05,16.10
2020,03,04,15,06,11.30
2020,03,04,15,07,16.10
2020,03,04,15,08,16.10
2020,03,04,15,09,17.70
2020,03,04,15,10,9.60
2020,03,04,15,11,9.60
2020,03,04,15,12,20.90
2020,03,04,15,13,14.50
2020,03,04,15,14,19.30
2020,03,04,15,15,17.70
2020,03,04,15,16,19.30
2020,03,04,15,17,19.30
2020,03,04,15,18,19.30
2020,03,04,15,19,20.90
2020,03,04,15,20,20.90
2020,03,04,15,21,16.10
2020,03,04,15,22,16.10
2020,03,04,15,23,16.10
2020,03,04,15,24,16.10
2020,03,04,15,25,16.10
2020,03,04,15,26,22.50
2020,03,04,15,27,17.70
2020,03,04,15,28,16.10
2020,03,04,15,29,17.70
2020,03,04,15,30,19.30
2020,03,04,15,31,22.50
2020,03,04,15,32,9.60
2020,03,04,15,33,17.70
2020,03,04,15,34,16.10
2020,03,04,15,35,14.50
2020,03,04,15,36,8.10
2020,03,04,15,37,11.30
2020,03,04,15,38,12.90
2020,03,04,15,39,11.30
2020,03,04,15,40,11.30
2020,03,04,15,41,16.10
2020,03,04,15,42,17.70
2020,03,04,15,43,17.70
2020,03,04,15,44,16.10
2020,03,04,15,45,17.70
2020,03,04,15,46,19.30
2020,03,04,15,47,20.90
2020,03,04,15,48,17.70
2020,03,04,15,49,19.30
2020,03,04,15,50,16.10
2020,03,04,15,51,17.70
2020,03,04,15,52,17.70
2020,03,04,15,53,16.10
2020,03,04,15,54,16.10
2020,03,04,15,55,16.10
2020,03,04,15,56,16.10
2020,03,04,15,57,16.10
2020,03,04,15,58,17.70
2020,03,04,15,59,14.50
2020,03,04,16,00,12.90
2020,03,04,16,01,16.10
2020,03,04,16,02,9.60
2020,03,04,16,03,14.50
2020,03,04,16,04,17.70
2020,03,04,16,05,9.60
2020,03,04,16,06,14.50
2020,03,04,16,07,16.10
2020,03,04,16,08,9.60
2020,03,04,16,09,11.30
2020,03,04,16,10,14.50
2020,03,04,16,11,9.60
2020,03,04,16,12,16.10
2020,03,04,16,13,14.50
2020,03,04,16,14,17.70
2020,03,04,16,15,16.10
2020,03,04,16,16,16.10
2020,03,04,16,17,11.30
2020,03,04,16,18,14.50
2020,03,04,16,19,17.70
2020,03,04,16,20,14.50
2020,03,04,16,21,14.50
2020,03,04,16,22,16.10
2020,03,04,16,23,14.50
2020,03,04,16,24,9.60
2020,03,04,16,25,16.10
2020,03,04,16,26,14.50
2020,03,04,16,27,17.70
2020,03,04,16,28,16.10
2020,03,04,16,29,9.60
2020,03,04,16,30,14.50
2020,03,04,16,31,14.50
2020,03,04,16,32,19.30
2020,03,04,16,33,19.30
2020,03,04,16,34,20.90
2020,03,04,16,35,20.90
2020,03,04,16,36,9.60
2020,03,04,16,37,9.60
2020,03,04,16,38,16.10
2020,03,04,16,39,14.50
2020,03,04,16,40,16.10
2020,03,04,16,41,9.60
2020,03,04,16,42,8.10
2020,03,04,16,43,9.60
2020,03,04,16,44,19.30
2020,03,04,16,45,16.10
2020,03,04,16,46,16.10
2020,03,04,16,47,12.90
2020,03,04,16,48,9.60
2020,03,04,16,49,11.30
2020,03,04,16,50,14.50
2020,03,04,16,51,17.70
2020,03,04,16,52,11.30
2020,03,04,16,53,14.50
2020,03,04,16,54,11.30
2020,03,04,16,55,9.60
2020,03,04,16,56,8.10
2020,03,04,16,57,8.10
2020,03,04,16,58,8.10
2020,03,04,16,59,8.10
2020,03,04,17,00,11.30
2020,03,04,17,01,9.60
2020,03,04,17,02,6.40
2020,03,04,17,03,8.10
2020,03,04,17,04,11.30
2020,03,04,17,05,8.10
2020,03,04,17,06,6.40
2020,03,04,17,07,6.40
2020,03,04,17,08,8.10
2020,03,04,17,09,9.60
2020,03,04,17,10,8.10
2020,03,04,17,11,9.60
2020,03,04,17,12,4.80
2020,03,04,17,13,4.80
2020,03,04,17,14,4.80
2020,03,04,17,15,6.40
2020,03,04,17,16,11.30
2020,03,04,17,17,12.90
2020,03,04,17,18,8.10
2020,03,04,17,19,4.80
2020,03,04,17,20,8.10
2020,03,04,17,21,9.60
2020,03,04,17,22,14.50
2020,03,04,17,23,4.80
2020,03,04,17,24,6.40
2020,03,04,17,25,6.40
2020,03,04,17,26,8.10
2020,03,04,17,27,6.40
2020,03,04,17,28,8.10
2020,03,04,17,29,6.40
2020,03,04,17,30,6.40
2020,03,04,17,31,6.40
2020,03,04,17,32,4.80
2020,03,04,17,33,4.80
2020,03,04,17,34,9.60
2020,03,04,17,35,8.10
2020,03,04,17,36,11.30
2020,03,04,17,37,11.30
2020,03,04,17,38,8.10
2020,03,04,17,39,12.90
2020,03,04,17,40,9.60
2020,03,04,17,41,6.40
2020,03,04,17,42,9.60
2020,03,04,17,43,11.30
2020,03,04,17,44,11.30
2020,03,04,17,45,16.10
2020,03,04,17,46,11.30
2020,03,04,17,47,11.30
2020,03,04,17,48,11.30
2020,03,04,17,49,11.30
2020,03,04,17,50,14.50
2020,03,04,17,51,12.90
2020,03,04,17,52,9.60
2020,03,04,17,53,6.40
2020,03,04,17,54,8.10
2020,03,04,17,55,6.40
2020,03,04,17,56,8.10
2020,03,04,17,57,11.30
2020,03,04,17,58,4.80
2020,03,04,17,59,6.40
2020,03,04,18,00,8.10
2020,03,04,18,01,4.80
2020,03,04,18,02,6.40
2020,03,04,18,03,9.60
2020,03,04,18,04,8.10
2020,03,04,18,05,9.60
2020,03,04,18,06,9.60
2020,03,04,18,07,8.10
2020,03,04,18,08,6.40
2020,03,04,18,09,4.80
2020,03,04,18,10,3.20
2020,03,04,18,11,1.60
2020,03,04,18,13,3.20
2020,03,04,18,14,4.80
2020,03,04,18,15,4.80
2020,03,04,18,18,4.80
2020,03,04,18,19,1.60
2020,03,04,18,20,1.60
2020,03,04,18,21,1.60
2020,03,04,18,22,3.20
2020,03,04,18,23,4.80
2020,03,04,18,24,3.20
2020,03,04,18,25,1.60
2020,03,04,18,26,3.20
2020,03,04,18,27,1.60
2020,03,04,18,29,1.60
2020,03,04,18,33,1.60
2020,03,04,18,35,1.60
2020,03,04,18,36,1.60
2020,03,04,18,40,3.20
2020,03,04,18,41,1.60
2020,03,04,18,55,1.60
2020,03,04,18,56,1.60
2020,03,04,18,57,1.60
2020,03,04,19,04,1.60
2020,03,04,19,50,1.60
2020,03,04,19,51,3.20
2020,03,04,19,52,1.60
2020,03,04,19,53,1.60
2020,03,04,19,54,1.60
2020,03,04,19,55,3.20
2020,03,04,19,56,3.20
2020,03,04,19,57,1.60
2020,03,04,19,58,1.60
2020,03,04,20,00,3.20
2020,03,04,20,01,3.20
2020,03,04,20,02,1.60
2020,03,04,20,04,1.60
2020,03,04,20,06,1.60
2020,03,04,20,16,1.60
2020,03,04,20,18,1.60
2020,03,04,20,19,1.60
2020,03,04,20,21,1.60
2020,03,04,20,22,3.20
2020,03,04,20,23,3.20
2020,03,04,20,24,3.20
2020,03,04,20,25,3.20
2020,03,04,20,26,1.60
2020,03,04,20,27,3.20
2020,03,04,20,28,6.40
2020,03,04,20,29,6.40
2020,03,04,20,30,6.40
2020,03,04,20,31,4.80
2020,03,04,20,32,4.80
2020,03,04,20,33,6.40
2020,03,04,20,34,6.40
2020,03,04,20,35,6.40
2020,03,04,20,36,9.60
2020,03,04,20,37,4.80
2020,03,04,20,38,8.10
2020,03,04,20,39,4.80
2020,03,04,20,40,3.20
2020,03,04,20,41,6.40
2020,03,04,20,42,8.10
2020,03,04,20,43,9.60
2020,03,04,20,44,9.60
2020,03,04,20,45,9.60
2020,03,04,20,46,8.10
2020,03,04,20,47,8.10
2020,03,04,20,48,3.20
2020,03,04,20,49,6.40
2020,03,04,20,50,6.40
2020,03,04,20,51,4.80
2020,03,04,20,52,4.80
2020,03,04,20,53,1.60
2020,03,04,20,54,1.60
2020,03,04,20,56,4.80
2020,03,04,20,57,9.60
2020,03,04,20,58,4.80
2020,03,04,20,59,4.80
2020,03,04,21,00,4.80
2020,03,04,21,01,3.20
2020,03,04,21,02,4.80
2020,03,04,21,03,3.20
2020,03,04,21,04,6.40
2020,03,04,21,05,4.80
2020,03,04,21,06,4.80
2020,03,04,21,07,8.10
2020,03,04,21,08,4.80
2020,03,04,21,09,1.60
2020,03,04,21,10,1.60
2020,03,04,21,12,1.60
2020,03,04,21,13,1.60
2020,03,04,21,14,1.60
2020,03,04,21,15,6.40
2020,03,04,21,16,3.20
2020,03,04,21,17,4.80
2020,03,04,21,18,3.20
2020,03,04,21,19,4.80
2020,03,04,21,20,4.80
2020,03,04,21,21,9.60
2020,03,04,21,22,6.40
2020,03,04,21,23,6.40
2020,03,04,21,24,3.20
2020,03,04,21,25,1.60
2020,03,04,21,31,1.60
2020,03,04,21,32,1.60
2020,03,04,21,33,1.60
2020,03,04,21,34,1.60
2020,03,04,21,35,1.60
2020,03,04,21,39,1.60
2020,03,04,21,51,1.60
2020,03,04,21,52,1.60
2020,03,04,21,58,1.60
2020,03,04,22,01,3.20
2020,03,04,22,02,3.20
2020,03,04,22,03,1.60
2020,03,04,22,04,3.20
2020,03,04,22,05,3.20
2020,03,04,22,06,3.20
2020,03,04,22,07,3.20
2020,03,04,22,08,4.80
2020,03,04,22,09,4.80
2020,03,04,22,10,4.80
2020,03,04,22,11,6.40
2020,03,04,22,12,4.80
2020,03,04,22,13,3.20
2020,03,04,22,14,1.60
2020,03,04,22,15,1.60
2020,03,04,22,16,1.60
2020,03,04,22,22,1.60
2020,03,04,22,23,1.60
2020,03,04,22,24,4.80
2020,03,04,22,25,3.20
2020,03,04,22,26,3.20
2020,03,04,22,27,1.60
2020,03,04,22,28,1.60
2020,03,04,22,29,3.20
2020,03,04,22,30,4.80
2020,03,04,22,31,4.80
2020,03,04,22,32,6.40
2020,03,04,22,33,8.10
2020,03,04,22,34,4.80
2020,03,04,22,35,4.80
2020,03,04,22,36,6.40
2020,03,04,22,37,9.60
2020,03,04,22,38,8.10
2020,03,04,22,39,9.60
2020,03,04,22,40,6.40
2020,03,04,22,41,9.60
2020,03,04,22,42,9.60
2020,03,04,22,43,8.10
2020,03,04,22,44,9.60
2020,03,04,22,45,6.40
2020,03,04,22,46,8.10
2020,03,04,22,47,11.30
2020,03,04,22,48,9.60
2020,03,04,22,49,11.30
2020,03,04,22,50,4.80
2020,03,04,22,51,11.30
2020,03,04,22,52,11.30
2020,03,04,22,53,9.60
2020,03,04,22,54,9.60
2020,03,04,22,55,3.20
2020,03,04,22,56,4.80
2020,03,04,22,57,3.20
2020,03,04,22,58,1.60
2020,03,04,22,59,3.20
2020,03,04,23,00,4.80
2020,03,04,23,01,3.20
2020,03,04,23,02,6.40
2020,03,04,23,03,4.80
2020,03,04,23,04,6.40
2020,03,04,23,05,6.40
2020,03,04,23,06,3.20
2020,03,04,23,07,3.20
2020,03,04,23,08,9.60
2020,03,04,23,09,6.40
2020,03,04,23,10,11.30
2020,03,04,23,11,12.90
2020,03,04,23,12,8.10
2020,03,04,23,13,9.60
2020,03,04,23,14,14.50
2020,03,04,23,15,12.90
2020,03,04,23,16,17.70
2020,03,04,23,17,11.30
2020,03,04,23,18,9.60
2020,03,04,23,19,8.10
2020,03,04,23,20,9.60
2020,03,04,23,21,4.80
2020,03,04,23,22,14.50
2020,03,04,23,23,16.10
2020,03,04,23,24,11.30
2020,03,04,23,25,12.90
2020,03,04,23,26,9.60
2020,03,04,23,27,8.10
2020,03,04,23,28,8.10
2020,03,04,23,29,14.50
2020,03,04,23,30,11.30
2020,03,04,23,31,16.10
2020,03,04,23,32,17.70
2020,03,04,23,33,14.50
2020,03,04,23,34,16.10